Regional Weather Roundup
Issued by NWS

Home | Current Version | Previous Version | Text Only | Print | Product List | Glossary On
Versions: 1 2 3 4 5 6 7 8 9 10 11 12 13 14 15 16 17 18 19 20 21 22 23 24 25 26 27 28 29 30 31 32 33 34 35 36 37 38 39 40 41 42 43 44 45 46 47 48 49 50
000
ASUS44 KFWD 261010
RWRTX
NORTH TEXAS HOURLY WEATHER ROUNDUP
NATIONAL WEATHER SERVICE FORT WORTH TX
500 AM CDT SUN MAR 26 2017

NOTE: "FAIR" INDICATES FEW OR NO CLOUDS BELOW 12,000 FEET WITH NO
SIGNIFICANT WEATHER AND/OR OBSTRUCTIONS TO VISIBILITY.

TXZ118-119-261100-
DALLAS/FORT WORTH METROPLEX

CITY           SKY/WX    TMP DP  RH WIND       PRES   REMARKS
DFW AIRPORT    CLEAR     54  47  77 E5        29.84F
DALLAS LOVE    CLEAR     56  48  74 E6        29.86F
FTW MEACHAM    CLEAR     56  45  66 SE5       29.86F
DAL-EXECUTIVE  PTCLDY    50  47  89 SE3       29.86F
FTW-ALLIANCE   CLEAR     51  47  86 CALM      29.85F
FTW-NAS-JRB    CLEAR     56  46  69 SE5       29.86F
FTW-SPINKS     CLEAR     51  46  82 CALM      29.87S
ARLINGTON      CLEAR     47  45  93 S3        29.87F
GRAND PRAIRIE  CLEAR     54  46  75 CALM      29.88S
ADDISON        CLEAR     55  47  76 E6        29.88F
MESQUITE       PTCLDY    47  46  93 CALM      29.88F
LANCASTER      CLEAR     47  45  91 CALM      29.88F
$$

TXZ091>094-102>105-117-120-121-131>134-261100-
NORTH CENTRAL TEXAS

CITY           SKY/WX    TMP DP  RH WIND       PRES   REMARKS
SHRMAN/DENISON CLEAR     53  46  78 S9        29.89R
GAINESVILLE    CLEAR     49  44  84 CALM      29.89F
BOWIE          CLEAR     50  46  85 SE3       29.86F
BRIDGEPORT     CLEAR     47  44  90 CALM      29.87F
DECATUR        CLEAR     49  45  83 E5        29.85F
DENTON         CLEAR     47  44  90 E3        29.86F
MCKINNEY       CLEAR     50  49  96 CALM      29.88F
BONHAM         CLEAR     48  45  87 S5        29.89S
GREENVILLE     CLEAR     46  45  93 CALM      29.89F
ROCKWALL       PTCLDY    53  47  81 E3        29.88F
TERRELL        PTCLDY    47  44  90 NE5       29.88F
WAXAHACHIE     CLEAR     51  47  86 CALM      29.89S
CLEBURNE       CLEAR     55  50  82 SE9       29.86F
GRANBURY       CLEAR     55  48  77 SE3       29.87S
$$

TXZ083>090-098>101-113>116-127>130-139>142-154-155-261100-
WESTERN NORTH TEXAS

CITY           SKY/WX    TMP DP  RH WIND       PRES   REMARKS
WICHITA FALLS  CLEAR     49  43  80 SE7       29.83F
WF-KICKAPOO    CLEAR     51  45  78 E6        29.85F
VERNON         CLEAR     47  38  72 NE5       29.83F
ABILENE        CLEAR     54  43  66 S13       29.81F
ABILENE-DYESS  CLEAR     53  43  67 S10       29.79F
GRAHAM         CLEAR     55  46  69 SE5       29.82F
BRECKENRIDGE   CLEAR     59  45  60 SE14      29.81F
CISCO          CLEAR     52  45  76 SE9       29.83F
RANGER         CLEAR     54  46  76 S8        29.84F
MINERAL WELLS  CLEAR     51  44  77 SE10      29.83F
STEPHENVILLE   CLEAR     51  44  78 CALM      29.88S
COMANCHE       CLEAR     55  49  79 S8        29.85S
BROWNWOOD      CLOUDY    54  46  76 SE5       29.84F
COLEMAN        PTCLDY    54  43  67 S5        29.84S
$$

TXZ143>147-156>162-174-175-261100-
CENTRAL TEXAS

CITY           SKY/WX    TMP DP  RH WIND       PRES   REMARKS
WACO           CLEAR     57  51  80 SE12      29.87F
WACO-MCGREGOR  CLEAR     53  49  86 S8        29.87F
HILLSBORO      PTCLDY    60  50  69 E12       29.86F
CORSICANA      PTCLDY    55  51  86 SE6       29.89F
MEXIA          CLEAR     54  49  83 S8        29.87F
HEARNE         CLOUDY    57  57  98 SE7       29.90F
CAMERON        CLOUDY    58  54  84 S5        29.88S
TEMPLE         CLOUDY    60  55  83 S10       29.87F
KILLEEN        CLOUDY    56  51  80 S6        29.86R HAZE
KILLEEN-SKYLRK CLEAR     58  54  86 SE8       29.87F
FORT HOOD      CLEAR     55  50  83 SE6       29.84R
GATESVILLE     PTCLDY    54  48  82 CALM      29.88F
HAMILTON       MOCLDY    55  49  79 S8        29.86F
LAMPASAS       CLEAR     55  52  88 CALM      29.85F
$$

TXZ095>097-106>112-122>126-135>138-148>153-164>167-261100-
EAST TEXAS

CITY           SKY/WX    TMP DP  RH WIND       PRES   REMARKS
PARIS          CLEAR     48  43  81 SE6       29.90S
SULPHUR SPRNGS CLEAR     49  49  98 CALM      29.91F
MOUNT PLEASANT PTCLDY    47  47 100 CALM      29.92S
GILMER         PTCLDY    50  49  97 CALM      29.91S
MINEOLA        CLEAR     46  46 100 CALM      29.90S FOG
TYLER          CLEAR     52  50  93 SE5       29.89F
LONGVIEW       CLEAR     50  50 100 SE3       29.90F
MARSHALL       CLEAR     47  46  93 CALM      29.94R
ATHENS         PTCLDY    46  46 100 CALM      29.89S
PALESTINE      CLEAR     52  51  96 E3        29.91F
JACKSONVILLE   PTCLDY    57  50  78 S7        29.93R
HENDERSON      CLEAR    N/A N/A N/A CALM      29.92S
CENTER         SUNNY     52  51  95 CALM      29.94R
NACOGDOCHES    CLEAR     46  43  87 CALM      29.91R
LUFKIN         CLEAR     49  47  93 E3        29.91F
$$

SUPPLEMENTAL OBSERVATIONS (CENTRAL)

CITY           SKY/WX    TMP DP  RH WIND       PRES   REMARKS
CADDO GRASSLND   N/A     45  41  87 NE1         N/A
MCGREGOR         N/A     61  50  67 S13         N/A
TEMPLE           N/A     57  54  88 S10         N/A
$$

SUPPLEMENTAL OBSERVATIONS (WEST)

CITY           SKY/WX    TMP DP  RH WIND       PRES   REMARKS
MILLERS CREEK    N/A     55  43  62 S7          N/A
POSSUM KINGDOM   N/A     55  45  67 SE7         N/A
LBJ GRASSLAND    N/A     55  45  67 E6          N/A
GRANBURY         N/A     55  48  76 SE5         N/A
HAMBY            N/A     55  41  58 S9          N/A
$$

SUPPLEMENTAL OBSERVATIONS (EAST)

CITY           SKY/WX    TMP DP  RH WIND       PRES   REMARKS
TEXARKANA        N/A     45  43  93 CALM        N/A
LINDEN           N/A     48  46  93 CALM        N/A
LUFKIN           N/A     50  48  93 MISG        N/A
N SABINE NF      N/A     46  45  93 MISG        N/A
$$

SUPPLEMENTAL OBSERVATIONS ARE A COLLECTION OF AUTOMATED INSTRUMENTS
THAT ARE MAINTAINED BY A VARIETY OF FEDERAL AND STATE AGENCIES.
CERTAIN ELEMENTS...SUCH AS HUMIDITY VALUES AND SUSTAINED WIND
SPEEDS...MAY BE APPROXIMATED.




USA.gov is the U.S. government's official web portal to all federal, state and local government web resources and services.